{"data":{"norad_id":66022,"intl_designator":"2025-232T","name":"STARLINK-35340","alt_names":[],"object_type":"PAYLOAD","status":"ACTIVE","operator":null,"country":"US","launch_date":"2025-10-16","launch_site_code":"AFETR","launch_vehicle":null,"mission":null,"orbit_class":"UNKNOWN","rcs_meters":null,"size_class":null,"mass_kg":null,"dimensions":null,"purposes":["comms"],"wikipedia_slug":null,"has_3d_model":false,"image_url":null,"decayed_at":null,"tle_current":{"epoch":"2026-05-25T03:34:01.142976Z","epoch_age_seconds":58320,"freshness":"FRESH","line1":"1 66022U 25232T   26145.14862434  .00006463  00000+0  23019-3 0  9996","line2":"2 66022  53.1607 108.6272 0001326  95.1988 264.9164 15.30195300 35140","mean_motion":15.301953,"eccentricity":0.0001326,"inclination_deg":53.1607,"raan_deg":108.6272,"arg_perigee_deg":95.1988,"mean_anomaly_deg":264.9164,"bstar":0.00023019,"rev_number":3514,"period_min":94.105634751329,"perigee_km":474.32034646283,"apogee_km":476.1378591533,"semimajor_km":6853.3661028081,"source":"CELESTRAK","updated_at":"2026-05-25T13:38:21.017131Z"}}}